EW4427 Weather Reports


time (UTC)temp
C
wind
direction
speed
KPH
gust
KPH
rain 1hr
cm
rain 24hr
cm
rain mn
cm
humidity
%
barometer
mb
20260905054601 22 0 0.0 0.0 0.00 0.03 0.00 92 1013.6
20260905054046 22 0 0.0 0.0 0.00 0.03 0.00 92 1013.7
20260905053547 22 0 0.0 0.0 0.00 0.03 0.00 92 1013.7
20260905053057 22 0 0.0 0.0 0.00 0.03 0.00 92 1013.7
20260905052546 22 0 0.0 0.0 0.00 0.03 0.00 92 1013.8
20260905052049 22 0 0.0 0.0 0.00 0.03 0.00 92 1013.8
20260905051556 22 0 0.0 0.0 0.00 0.03 0.00 92 1013.8
20260905051046 22 0 0.0 0.0 0.00 0.03 0.00 92 1013.9
20260905050546 22 0 0.0 0.0 0.00 0.03 0.00 92 1013.9
20260905050104 22 0 0.0 0.0 0.00 0.03 0.00 92 1014.0
20260905045546 22 0 0.0 0.0 0.00 0.03 0.03 92 1014.0
20260905045049 22 0 0.0 0.0 0.00 0.03 0.03 92 1014.0
20260905044555 22 0 0.0 0.0 0.00 0.03 0.03 92 1014.1
20260905044046 22 0 0.0 0.0 0.00 0.03 0.03 92 1014.0
20260905043545 22 0 0.0 0.0 0.00 0.03 0.03 91 1014.1
20260905043102 22 0 0.0 0.0 0.00 0.03 0.03 91 1014.0
20260905042544 22 0 0.0 0.0 0.00 0.03 0.03 91 1013.9
20260905042045 22 0 0.0 0.0 0.00 0.03 0.03 91 1013.8
20260905041606 22 0 0.0 0.0 0.00 0.03 0.03 91 1013.7
20260905041046 22 0 0.0 0.0 0.00 0.03 0.03 91 1013.8
20260905040544 22 0 0.0 0.0 0.00 0.03 0.03 91 1013.9
20260905040100 22 0 0.0 0.0 0.00 0.03 0.03 91 1013.7
20260905035542 22 0 0.0 0.0 0.00 0.03 0.03 91 1013.4
20260905035042 22 0 0.0 0.0 0.00 0.03 0.03 91 1013.5
20260905034601 22 0 0.0 0.0 0.00 0.03 0.03 90 1013.3
20260905034041 22 0 0.0 0.0 0.00 0.03 0.03 90 1013.4
20260905033544 22 0 0.0 0.0 0.00 0.03 0.03 90 1013.5
20260905033101 22 0 0.0 0.0 0.00 0.03 0.03 90 1013.6
20260905032545 22 0 0.0 0.0 0.00 0.03 0.03 89 1013.6
20260905032043 22 0 0.0 0.0 0.00 0.03 0.03 89 1013.8
20260905031558 22 0 0.0 0.0 0.00 0.03 0.03 89 1014.0
20260905031044 22 0 0.0 0.0 0.00 0.03 0.03 89 1014.0
20260905030544 22 0 0.0 0.0 0.00 0.03 0.03 89 1014.1
20260905030106 22 0 0.0 0.0 0.00 0.03 0.03 89 1014.1
20260905025542 22 0 0.0 0.0 0.00 0.03 0.03 89 1013.9
20260905025047 23 0 0.0 0.0 0.00 0.03 0.03 89 1014.0
20260905024605 23 0 0.0 0.0 0.00 0.03 0.03 89 1013.9
20260905024042 23 0 0.0 0.0 0.00 0.03 0.03 88 1013.9
20260905023543 23 0 0.0 0.0 0.00 0.03 0.03 88 1014.0
20260905023107 23 0 0.0 0.0 0.00 0.03 0.03 88 1014.0
20260905022541 23 0 0.0 0.0 0.00 0.03 0.03 88 1014.0
20260905022042 23 0 0.0 0.0 0.00 0.03 0.03 88 1014.0
20260905021606 23 0 0.0 0.0 0.00 0.03 0.03 88 1014.0
20260905021046 23 0 0.0 0.0 0.00 0.03 0.03 88 1014.0
20260905020544 23 0 0.0 0.0 0.00 0.03 0.03 87 1013.8
20260905015543 23 0 0.0 0.0 0.00 0.03 0.03 87 1014.0
20260905015043 23 0 0.0 0.0 0.00 0.03 0.03 87 1014.0
20260905014603 23 0 0.0 0.0 0.00 0.03 0.03 86 1013.9
20260905014043 23 0 0.0 0.0 0.00 0.03 0.03 86 1014.0
20260905013545 24 0 0.0 0.0 0.00 0.03 0.03 86 1014.1
20260905013102 24 0 0.0 0.0 0.00 0.03 0.03 86 1014.1
20260905012545 24 0 0.0 1.6 0.00 0.03 0.03 85 1014.0
20260905012044 24 0 0.0 8.0 0.00 0.03 0.03 85 1013.9
20260905011608 24 5 0.0 8.0 0.00 0.03 0.03 85 1014.0
20260905011044 24 0 1.6 8.0 0.00 0.03 0.03 85 1013.8
20260905010546 25 0 0.0 4.8 0.00 0.03 0.03 84 1013.7
20260905010111 25 0 0.0 6.4 0.00 0.03 0.03 84 1013.4
20260905005543 25 0 0.0 6.4 0.00 0.03 0.03 84 1013.3
20260905005043 25 355 0.0 6.4 0.00 0.03 0.03 83 1013.3
20260905004603 25 29 0.0 6.4 0.00 0.03 0.03 83 1013.1
20260905004045 25 14 1.6 6.4 0.00 0.03 0.03 83 1012.9
20260905003550 25 38 1.6 4.8 0.00 0.03 0.03 82 1012.9
20260905003103 25 0 0.0 4.8 0.00 0.03 0.03 82 1012.7
20260905002545 26 0 0.0 8.0 0.00 0.03 0.03 82 1012.7
20260905002047 26 0 1.6 8.0 0.00 0.03 0.03 81 1012.7
20260905001602 26 19 1.6 8.0 0.00 0.03 0.03 80 1012.6
20260905001047 26 0 1.6 6.4 0.00 0.03 0.03 80 1012.7
20260905000544 26 0 1.6 6.4 0.00 0.03 0.03 79 1012.7
20260904235548 27 0 0.0 4.8 0.00 0.03 0.03 79 1012.7
20260904235046 27 0 0.0 6.4 0.00 0.03 0.03 80 1012.7
20260904234600 27 0 0.0 6.4 0.00 0.03 0.03 80 1012.7
20260904234044 27 0 0.0 6.4 0.00 0.03 0.03 81 1012.7
20260904233546 28 0 0.0 3.2 0.00 0.03 0.03 83 1012.5
20260904233101 28 0 0.0 0.0 0.00 0.03 0.03 85 1012.4
20260904232548 28 0 0.0 1.6 0.00 0.03 0.03 84 1012.1
20260904232048 28 0 0.0 1.6 0.00 0.03 0.03 84 1012.0
20260904231602 28 0 0.0 0.0 0.00 0.03 0.03 84 1012.0
20260904231046 28 0 0.0 0.0 0.00 0.03 0.03 83 1012.0
20260904230547 28 0 0.0 0.0 0.00 0.03 0.03 82 1012.2
20260904230110 28 0 0.0 0.0 0.00 0.03 0.03 82 1012.2
20260904225546 28 0 0.0 0.0 0.00 0.03 0.03 82 1012.2
20260904225047 28 0 0.0 0.0 0.00 0.03 0.03 82 1012.1
20260904224610 28 0 0.0 0.0 0.00 0.03 0.03 81 1012.0
20260904224050 29 0 0.0 0.0 0.00 0.03 0.03 80 1012.2
20260904223547 29 0 0.0 0.0 0.00 0.03 0.03 79 1012.1
20260904223102 29 0 0.0 0.0 0.00 0.03 0.03 79 1012.1
20260904222547 29 0 0.0 0.0 0.00 0.03 0.03 78 1012.2
20260904222048 29 0 0.0 0.0 0.00 0.03 0.03 78 1012.3
20260904221604 29 0 0.0 0.0 0.00 0.03 0.03 78 1012.3
20260904221047 29 0 0.0 0.0 0.00 0.03 0.03 77 1012.3
20260904220546 29 0 0.0 1.6 0.00 0.03 0.03 77 1012.3
20260904220107 29 0 0.0 3.2 0.00 0.03 0.03 78 1012.3
20260904215546 29 0 0.0 3.2 0.00 0.03 0.03 78 1012.3
20260904215046 29 0 0.0 3.2 0.00 0.03 0.03 78 1012.1
20260904214603 29 0 0.0 3.2 0.00 0.03 0.03 77 1012.4
20260904214046 29 178 0.0 6.4 0.00 0.03 0.03 78 1012.1
20260904213546 29 197 1.6 8.0 0.00 0.03 0.03 77 1012.1
20260904213107 29 177 1.6 8.0 0.00 0.03 0.03 77 1012.1
20260904212546 29 186 3.2 8.0 0.00 0.03 0.03 78 1012.0
20260904212047 29 190 1.6 8.0 0.00 0.03 0.03 77 1012.1
20260904211603 29 189 1.6 9.7 0.00 0.03 0.03 77 1012.0
20260904211047 29 186 1.6 11.3 0.00 0.03 0.03 77 1011.9
20260904210546 29 194 4.8 11.3 0.00 0.03 0.03 77 1011.8
20260904210108 29 177 1.6 9.7 0.00 0.03 0.03 77 1011.8
20260904205546 29 178 4.8 9.7 0.00 0.03 0.03 77 1011.7
20260904205046 29 177 3.2 9.7 0.00 0.03 0.03 76 1011.9
20260904204558 29 197 3.2 8.0 0.00 0.03 0.03 76 1011.8
20260904204046 29 198 1.6 14.5 0.00 0.03 0.03 77 1012.0
20260904203546 29 190 4.8 14.5 0.00 0.03 0.03 77 1011.9
20260904203101 29 183 9.7 14.5 0.00 0.03 0.03 77 1011.9
20260904202547 29 200 4.8 11.3 0.00 0.03 0.03 76 1012.0
20260904202045 29 163 6.4 11.3 0.00 0.03 0.03 77 1012.1
20260904201558 28 211 4.8 12.9 0.00 0.03 0.03 78 1012.2
20260904201047 28 185 4.8 12.9 0.00 0.03 0.03 80 1012.3
20260904200545 28 190 6.4 12.9 0.00 0.03 0.03 80 1012.3
20260904200058 28 182 3.2 11.3 0.00 0.03 0.03 80 1012.3
20260904195546 28 213 4.8 11.3 0.00 0.03 0.03 80 1012.4
20260904195046 27 188 6.4 12.9 0.00 0.03 0.03 80 1012.5
20260904194555 27 178 4.8 12.9 0.00 0.03 0.03 81 1012.7
20260904194047 27 185 4.8 9.7 0.00 0.03 0.03 82 1012.7
20260904193546 27 185 4.8 9.7 0.00 0.03 0.03 82 1012.8
20260904193105 26 188 1.6 8.0 0.00 0.03 0.03 84 1012.9
20260904192546 26 189 0.0 12.9 0.00 0.03 0.03 83 1013.2
20260904192045 26 189 3.2 14.5 0.00 0.03 0.03 83 1013.2
20260904191605 26 186 6.4 14.5 0.00 0.03 0.03 82 1013.1
20260904191046 26 180 6.4 12.9 0.00 0.03 0.03 83 1013.1
20260904190547 26 187 4.8 12.9 0.00 0.03 0.03 82 1013.1
20260904190057 26 195 4.8 20.9 0.00 0.03 0.03 81 1013.4
20260904185547 26 195 6.4 20.9 0.00 0.03 0.03 82 1013.3
20260904185050 26 191 12.9 20.9 0.00 0.03 0.03 82 1012.8
20260904184606 26 193 11.3 20.9 0.00 0.03 0.03 83 1013.0
20260904184046 26 188 11.3 20.9 0.00 0.03 0.03 83 1013.1
20260904183546 26 194 9.7 17.7 0.00 0.03 0.03 86 1013.3
20260904183100 25 176 9.7 17.7 0.00 0.03 0.03 86 1013.2
20260904182542 25 199 8.0 19.3 0.00 0.03 0.03 87 1013.5
20260904182042 25 184 8.0 19.3 0.00 0.03 0.03 89 1013.7
20260904181557 24 180 8.0 16.1 0.00 0.03 0.03 89 1013.8
20260904181042 23 192 6.4 12.9 0.00 0.03 0.03 91 1013.8
20260904180542 23 192 6.4 14.5 0.00 0.03 0.03 92 1013.8
20260904180054 23 180 4.8 14.5 0.00 0.03 0.03 92 1013.8
20260904175541 23 205 4.8 12.9 0.00 0.03 0.03 93 1014.0
20260904175044 22 186 6.4 14.5 0.00 0.03 0.03 93 1014.0
20260904174604 22 195 4.8 14.5 0.00 0.03 0.03 93 1013.9
20260904174046 22 182 4.8 11.3 0.00 0.03 0.03 93 1013.8
20260904173542 22 197 6.4 14.5 0.00 0.03 0.03 93 1013.9
20260904173058 22 200 3.2 16.1 0.00 0.03 0.03 93 1013.9
20260904172542 22 182 6.4 19.3 0.00 0.03 0.03 93 1014.0
20260904172044 22 186 8.0 19.3 0.00 0.03 0.03 93 1013.9
20260904171604 22 180 11.3 22.5 0.00 0.03 0.03 93 1013.7
20260904171043 22 197 12.9 25.7 0.00 0.03 0.03 93 1013.6
20260904170544 22 197 12.9 25.7 0.00 0.03 0.03 94 1013.5
20260904170101 21 195 17.7 29.0 0.00 0.03 0.03 93 1013.9
20260904165543 21 216 16.1 29.0 0.00 0.03 0.03 94 1013.9
20260904165043 21 178 14.5 27.4 0.00 0.03 0.03 94 1014.3
20260904164600 21 190 14.5 27.4 0.00 0.03 0.03 94 1013.9
20260904164044 21 180 11.3 17.7 0.00 0.03 0.03 94 1014.2
20260904163542 21 190 9.7 19.3 0.00 0.03 0.03 93 1014.3
20260904163055 21 186 12.9 19.3 0.00 0.03 0.03 93 1014.2
20260904162544 21 198 11.3 17.7 0.00 0.03 0.03 93 1014.4
20260904162044 21 207 6.4 17.7 0.00 0.03 0.03 92 1014.5
20260904161558 21 159 6.4 24.1 0.00 0.03 0.03 91 1015.0
20260904161045 21 191 12.9 24.1 0.00 0.03 0.03 91 1015.4
20260904160544 21 163 9.7 17.7 0.00 0.03 0.03 91 1015.3
20260904160059 22 164 11.3 16.1 0.00 0.03 0.03 91 1015.3
20260904155543 21 180 6.4 12.9 0.00 0.03 0.03 90 1016.0
20260904155042 21 0 1.6 4.8 0.00 0.03 0.03 90 1016.8
20260904154600 21 0 0.0 4.8 0.00 0.03 0.03 90 1016.6
20260904154042 21 309 0.0 6.4 0.00 0.03 0.03 90 1016.8
20260904153542 21 120 1.6 8.0 0.00 0.03 0.03 90 1016.6
20260904153103 21 128 1.6 8.0 0.00 0.03 0.03 91 1016.3
20260904152541 21 186 0.0 11.3 0.00 0.03 0.03 91 1016.6
20260904152043 21 208 3.2 11.3 0.00 0.03 0.03 91 1016.5
20260904151601 21 200 1.6 12.9 0.00 0.03 0.03 92 1016.2
20260904151043 21 171 4.8 12.9 0.00 0.03 0.03 93 1016.1
20260904150542 21 178 3.2 9.7 0.00 0.03 0.03 93 1015.8
20260904150059 21 136 1.6 8.0 0.00 0.03 0.03 94 1015.9
20260904145544 21 152 0.0 6.4 0.00 0.03 0.03 94 1016.0
20260904145043 21 102 1.6 6.4 0.00 0.03 0.03 94 1016.3
20260904144556 21 105 0.0 4.8 0.00 0.03 0.03 94 1016.6
20260904144043 21 27 0.0 8.0 0.00 0.03 0.03 94 1016.5
20260904143542 20 0 1.6 8.0 0.00 0.03 0.03 94 1016.1
20260904143106 20 0 0.0 3.2 0.00 0.03 0.03 94 1016.0
20260904142543 20 150 0.0 4.8 0.00 0.03 0.03 94 1016.3
20260904142044 20 0 0.0 8.0 0.00 0.03 0.03 95 1016.5
20260904141605 20 0 0.0 9.7 0.00 0.03 0.03 94 1016.5
20260904141045 20 9 1.6 9.7 0.00 0.03 0.03 94 1016.5
20260904140541 20 355 1.6 14.5 0.00 0.03 0.03 94 1016.7
20260904140107 20 329 3.2 14.5 0.00 0.03 0.03 94 1016.8
20260904135544 20 24 4.8 14.5 0.00 0.03 0.03 95 1017.0
20260904135043 20 24 3.2 16.1 0.00 0.03 0.03 95 1017.1
20260904134606 20 340 4.8 16.1 0.00 0.03 0.03 95 1016.7
20260904134043 20 5 4.8 14.5 0.00 0.03 0.03 95 1016.8
20260904133543 20 5 3.2 6.4 0.00 0.03 0.03 95 1016.5
20260904133104 20 355 0.0 4.8 0.00 0.03 0.03 95 1015.8
20260904132545 20 0 0.0 4.8 0.00 0.03 0.03 95 1015.6
20260904132043 20 118 0.0 6.4 0.00 0.03 0.03 95 1015.1
20260904131600 20 0 0.0 6.4 0.00 0.03 0.03 95 1015.0
20260904131044 20 0 0.0 3.2 0.00 0.03 0.03 95 1015.2
20260904130542 20 45 0.0 9.7 0.00 0.03 0.03 95 1015.2
20260904130059 20 96 0.0 11.3 0.00 0.03 0.03 95 1015.3
20260904125544 20 47 1.6 19.3 0.00 0.03 0.03 95 1015.5
20260904125043 20 211 0.0 19.3 0.00 0.03 0.03 95 1015.4
20260904124610 20 13 3.2 19.3 0.00 0.03 0.03 95 1015.4
20260904124041 20 21 3.2 11.3 0.00 0.03 0.03 95 1015.3
20260904123544 20 30 1.6 11.3 0.00 0.03 0.03 95 1015.1
20260904123103 20 46 3.2 8.0 0.00 0.03 0.03 95 1015.0
20260904122546 20 355 1.6 8.0 0.00 0.03 0.03 95 1014.7
20260904122043 20 0 0.0 8.0 0.00 0.03 0.03 95 1015.0
20260904121559 20 190 0.0 8.0 0.00 0.03 0.03 95 1015.0
20260904121042 20 281 1.6 8.0 0.00 0.03 0.03 94 1014.8
20260904120542 20 17 1.6 8.0 0.03 0.03 0.03 94 1014.6
20260904120058 20 0 1.6 8.0 0.03 0.03 0.03 94 1014.4
20260904115542 20 39 1.6 6.4 0.03 0.03 0.03 94 1014.4
20260904115046 20 30 3.2 6.4 0.03 0.03 0.03 94 1014.1
20260904114554 20 20 1.6 4.8 0.03 0.03 0.03 94 1013.9
20260904114043 20 0 0.0 3.2 0.03 0.03 0.03 94 1013.6
20260904113543 20 0 0.0 1.6 0.03 0.03 0.03 94 1013.6
20260904113100 20 16 0.0 4.8 0.03 0.03 0.03 94 1013.7
20260904112542 21 0 0.0 4.8 0.03 0.03 0.03 94 1013.6
20260904112042 21 23 0.0 4.8 0.03 0.03 0.03 94 1013.6
20260904111600 21 34 0.0 4.8 0.03 0.03 0.03 94 1013.5
20260904111042 21 0 0.0 3.2 0.03 0.03 0.03 94 1013.4
20260904110544 21 280 0.0 4.8 0.00 0.00 0.00 94 1013.3
20260904110057 21 0 0.0 4.8 0.00 0.00 0.00 94 1013.3
20260904105547 21 0 0.0 4.8 0.00 0.00 0.00 94 1013.4
20260904105043 21 32 0.0 8.0 0.00 0.00 0.00 95 1013.1
20260904104602 21 26 1.6 8.0 0.00 0.00 0.00 95 1013.2
20260904104044 21 0 1.6 8.0 0.00 0.00 0.00 95 1013.3
20260904103542 21 26 1.6 8.0 0.00 0.00 0.00 95 1013.4
20260904103100 21 28 3.2 11.3 0.00 0.00 0.00 95 1013.4
20260904102546 22 0 1.6 12.9 0.00 0.00 0.00 95 1013.4
20260904102044 22 0 3.2 12.9 0.00 0.00 0.00 95 1013.6
20260904101556 22 9 1.6 9.7 0.00 0.00 0.00 95 1013.6
20260904101043 22 0 1.6 11.3 0.00 0.00 0.00 95 1013.5
20260904100544 22 19 3.2 11.3 0.00 0.00 0.00 95 1013.4
20260904100112 22 22 1.6 9.7 0.00 0.00 0.00 95 1013.5
20260904095544 22 32 0.0 9.7 0.00 0.00 0.00 95 1013.5
20260904095045 22 48 3.2 9.7 0.00 0.00 0.00 95 1013.3
20260904094559 22 0 3.2 9.7 0.00 0.00 0.00 95 1013.1
20260904094043 22 15 1.6 8.0 0.00 0.00 0.00 95 1013.5
20260904093545 22 0 0.0 0.0 0.00 0.00 0.00 95 1013.1
20260904093056 22 0 0.0 0.0 0.00 0.00 0.00 95 1012.9
20260904092545 22 0 0.0 0.0 0.00 0.00 0.00 95 1012.9
20260904092044 22 0 0.0 0.0 0.00 0.00 0.00 95 1012.9
20260904091556 22 0 0.0 0.0 0.00 0.00 0.00 95 1012.8
20260904091043 22 0 0.0 0.0 0.00 0.00 0.00 95 1012.7
20260904090543 22 0 0.0 0.0 0.00 0.00 0.00 95 1012.8
20260904090100 22 0 0.0 0.0 0.00 0.00 0.00 95 1012.8
20260904085545 22 0 0.0 0.0 0.00 0.00 0.00 95 1012.8
20260904085047 22 0 0.0 0.0 0.00 0.00 0.00 95 1012.5
20260904084608 22 0 0.0 0.0 0.00 0.00 0.00 95 1012.4
20260904084048 22 0 0.0 0.0 0.00 0.00 0.00 95 1012.6
20260904083545 22 0 0.0 0.0 0.00 0.00 0.00 95 1012.5
20260904083057 22 0 0.0 0.0 0.00 0.00 0.00 95 1012.3
20260904082552 22 0 0.0 0.0 0.00 0.00 0.00 95 1012.3
20260904082045 22 0 0.0 0.0 0.00 0.00 0.00 95 1012.1
20260904081601 21 0 0.0 0.0 0.00 0.00 0.00 95 1012.2
20260904081047 21 0 0.0 0.0 0.00 0.00 0.00 95 1012.5
20260904080543 21 0 0.0 0.0 0.00 0.00 0.00 95 1012.6
20260904075547 21 0 0.0 0.0 0.00 0.00 0.00 95 1012.9
20260904075045 21 0 0.0 0.0 0.00 0.00 0.00 95 1012.8
20260904074612 21 0 0.0 0.0 0.00 0.00 0.00 95 1012.9
20260904074045 21 0 0.0 0.0 0.00 0.00 0.00 95 1013.1
20260904073547 21 0 0.0 0.0 0.00 0.00 0.00 95 1013.1
20260904073101 21 0 0.0 0.0 0.00 0.00 0.00 95 1013.1
20260904072547 21 0 0.0 0.0 0.00 0.00 0.00 95 1013.0
20260904072043 21 0 0.0 4.8 0.00 0.00 0.00 95 1013.3
20260904071605 21 0 0.0 4.8 0.00 0.00 0.00 95 1013.2
20260904071045 21 0 0.0 9.7 0.00 0.00 0.00 95 1013.5
20260904070547 21 0 0.0 9.7 0.00 0.00 0.00 95 1013.4
20260904065546 21 10 1.6 4.8 0.00 0.00 0.00 94 1013.2
20260904065049 21 0 0.0 8.0 0.00 0.00 0.00 94 1013.3
20260904064602 21 0 0.0 8.0 0.00 0.00 0.00 94 1013.3
20260904064043 21 24 3.2 8.0 0.00 0.00 0.00 94 1013.3
20260904063543 21 19 0.0 4.8 0.00 0.00 0.00 94 1013.1
20260904063107 21 0 0.0 4.8 0.00 0.00 0.00 94 1013.3
20260904062545 21 0 0.0 4.8 0.00 0.00 0.00 94 1013.4
20260904062044 21 0 0.0 1.6 0.00 0.00 0.00 94 1013.4
20260904061603 21 0 0.0 0.0 0.00 0.00 0.00 93 1013.1
20260904061049 21 0 0.0 0.0 0.00 0.00 0.00 93 1013.0
20260904060544 22 0 0.0 0.0 0.00 0.00 0.00 93 1013.2
20260904060106 22 0 0.0 0.0 0.00 0.00 0.00 93 1013.1
20260904055545 22 0 0.0 0.0 0.00 0.00 0.00 94 1013.3
20260904055045 22 0 0.0 0.0 0.00 0.00 0.00 94 1013.5